Flag Weather past 2 weeks in Rovaniemi, Finland

Now
19 °F

Ice fog.


Feels Like: 19 °F
Forecast: 26 / 33 °F
Wind: 1 mph from North

Location: Rovaniemi Airport

Current Time: Nov 27, 2014 at 10:22:09 AM

Latest Report: Nov 27, 2014 at 9:50 AM


Visibility: 0 mi

Pressure: 30.18 "Hg

Humidity: 100%

Dew point: 19 °F

Location of RovaniemiLocation

Historic Weather in Rovaniemi — Graph

°F

Rovaniemi temperature yesterday

Maximum temperature yesterday: 32 °F (at 12:20 AM)
Minimum temperature yesterday: 25 °F (at 10:20 PM)
Average temperature yesterday: 29 °F

Past Weeks' High & Low Weather Summary

 TemperatureHumidityPressure
High32 °F (Nov 17, 11:20 AM)100% (Nov 12, 10:50 AM)30.54 "Hg (Nov 12, 10:50 AM)
Low5 °F (Nov 14, 1:20 AM)85% (Nov 14, 2:50 AM)29.98 "Hg (Nov 25, 5:50 PM)
Average24 °F98%30.29 "Hg
* Reported Nov 12 9:20 AM — Nov 27 9:20 AM, Rovaniemi, Weather by CustomWeather, © 2014

Note: Actual official high and low records may vary slightly from our data, if they occured in-between our weather recording intervals... More about our weather records

Advertising

Rovaniemi weather history for previous 24 hours

 ConditionsComfort  
Time TempWeatherWind HumidityBarometerVisibility
9:20 AM
Nov 27
21 °FIce fog.No wind93%30.18 "Hg0 mi
8:50 AM21 °FIce fog.1 mph93%30.18 "Hg1 mi
8:20 AM21 °FIce fog.6 mph100%30.15 "Hg1 mi
7:50 AM21 °FIce fog.3 mph93%30.15 "Hg1 mi
7:20 AM23 °FPassing clouds.2 mph93%30.15 "HgN/A
6:50 AM23 °FClear.3 mph100%30.15 "Hg10 mi
6:20 AM23 °FPassing clouds.3 mph93%30.15 "HgN/A
5:50 AM23 °FPassing clouds.3 mph100%30.15 "HgN/A
5:20 AM23 °FPartly cloudy.1 mph100%30.15 "HgN/A
4:50 AM23 °FPassing clouds.2 mph100%30.15 "HgN/A
4:20 AM23 °FPassing clouds.2 mph100%30.18 "Hg6 mi
3:50 AM23 °FIce fog.2 mph100%30.18 "HgN/A
3:20 AM23 °FPassing clouds.2 mph100%30.15 "HgN/A
2:50 AM25 °FIce fog.2 mph93%30.15 "Hg0 mi
2:20 AM25 °FIce fog.2 mph100%30.15 "Hg0 mi
1:50 AM25 °FIce fog.3 mph100%30.15 "Hg0 mi
1:20 AM25 °FIce fog.5 mph100%30.15 "Hg0 mi
12:50 AM25 °FIce fog.2 mph100%30.15 "Hg0 mi
12:20 AM25 °FIce fog.3 mph100%30.15 "Hg0 mi
11:50 PM
Nov 26
25 °FIce fog.2 mph100%30.15 "Hg0 mi
11:20 PM25 °FIce fog.3 mph100%30.15 "Hg0 mi
10:50 PM25 °FIce fog.5 mph100%30.15 "Hg0 mi
10:20 PM25 °FIce fog.5 mph100%30.15 "Hg0 mi
9:50 PM27 °FIce fog.5 mph100%30.15 "Hg0 mi
9:20 PM27 °FIce fog.6 mph100%30.12 "Hg0 mi
8:50 PM27 °FIce fog.5 mph100%30.12 "Hg0 mi
8:20 PM27 °FIce fog.5 mph100%30.12 "Hg0 mi
7:50 PM27 °FIce fog.2 mph100%30.12 "Hg0 mi
7:20 PM28 °FIce fog.3 mph100%30.12 "Hg0 mi
6:50 PM28 °FIce fog.5 mph100%30.12 "Hg0 mi
6:20 PM28 °FIce fog.5 mph100%30.12 "Hg0 mi
5:50 PM28 °FIce fog.5 mph100%30.12 "Hg0 mi
5:20 PM28 °FIce fog.3 mph100%30.12 "Hg0 mi
4:50 PM28 °FIce fog.3 mph100%30.09 "Hg0 mi
4:20 PM28 °FIce fog.5 mph100%30.09 "Hg0 mi
3:50 PM30 °FIce fog.5 mph100%30.09 "Hg0 mi
3:20 PM30 °FIce fog.3 mph100%30.09 "Hg0 mi
2:50 PM30 °FIce fog.5 mph100%30.09 "Hg0 mi
2:20 PM30 °FLight freezing rain. Ice fog.7 mph100%30.09 "Hg1 mi
1:50 PM30 °FIce fog.8 mph100%30.07 "Hg1 mi
1:20 PM30 °FIce fog.9 mph100%30.07 "Hg0 mi
12:50 PM30 °FIce fog.8 mph100%30.07 "Hg1 mi
12:20 PM30 °FLight freezing rain. Ice fog.5 mph100%30.07 "Hg0 mi
11:50 AM30 °FLight freezing rain. Ice fog.7 mph100%30.07 "Hg0 mi
11:20 AM30 °FLight freezing rain. Ice fog.7 mph100%30.07 "Hg0 mi
10:50 AM30 °FLight freezing rain. Ice fog.8 mph100%30.07 "Hg0 mi
10:20 AM30 °FLight freezing rain. Ice fog.7 mph100%30.04 "Hg0 mi
Weather by CustomWeather, © 2014

See weather overviewHow to use our weather pages